H-2A R/B, 61440

Orbit data source: Space-Track

H-2A R/B, 61440 is space debris in SSO originally from a launch on Thu, 26 Sep 2024 UTC launched from the Tanegashima Space Center (TNSTA). Debris objects in space refer to the collection of defunct objects orbiting the Earth. Examples of debris include non-operational satellites, rocket bodies, and fragments generated from explosions, collisions, or faulty payload assembly.

Loading next visibility...
Identifier
61440, 2024-176B
Orbit
SSO
Last TLE update
11 hours ago
Origin
Manufacturer
MHI Tobishima
Mission
Spacecraft
Bus & Motor
H-2A STAGE 2, Unknown motor
Mass
4,000 kg wet, 4,000 kg dry
Launch date (UTC)
2024-09-26 (9 months ago)
Launch vehicle
Unknown
Launch site
Tanegashima Space Center (TNSTA)
Object type
Payload
Rocket body
Debris
Shape & HBR
Cyl, 9.2 m
Radar Cross Section
35.186 m², Large (>1 m²)

Expand to show TLE details & history

TLE from 11 hours ago
0 H-2A R/B
1 61440U 24176B   25189.89711232  .00018339  00000-0  41666-3 0  9993
2 61440  97.2455 320.0544 0014331 109.1115 251.1686 15.42960538 43804
Epoch: 2025-07-08T21:31Z
TLE epoch observation values (Epoch: 2025-07-08T21:31:50.504Z)
Latitude
-0.00003°
Longitude
70.00846°
Altitude
443.669 km
Speed
7.644 km/s
True Right ascension
21h 20m 13s
True Declination
0° 00' 00"
Sunlit
Object was in full shadow at epoch
Visualization orbit readout
Latitude
-49.48699°
Longitude
78.96009°
Altitude
465.602 km
Speed
7.627 km/s
Apparent Right ascension
04h 00m 44s
Apparent Declination
-78° 05' 47"
Sunlit
Object is in full shadow
Visualization observer readout
Local Sidereal Time
20:22:12
Azimuth
164.909° S
Elevation
-43.932°
Doppler factor
1
Orbital elements
Apogee altitude
444.069 km
Perigee altitude
424.543 km
Semi-major axis
6,812.443 km
Eccentricity
0.00143
Inclination
97.2455°
RAAN
320.0544°
Arg. of periapsis
109.1115°
True anomaly
Unknown
Mean anomaly
251.1686°
Eccentric anomaly
Unknown
Mean motion
3.86001 °/min
Orbital period
93.26 mins
BSTAR
0.00041666
Loading maneuver chart data...
Loading SW <> Apogee altitude chart data...
Loading historical data...
Loading historical data...
Loading historical data...
Loading historical data...
Loading historical data...
Loading historical data...
Loading historical data...
Other satellites on launch #176 in the year 2024 (2024-09-26 UTC)

H-2A R/B Visibility forecast

Observer location: undefined°, undefined°

Span
Click to sort rows by Start time (UTC) header in descending order
Start Az.
Max El. time (UTC)
Max El. Az.
Max El.
End time (UTC)
End Az.
5 mins2025-07-09 08:33:35.424Z152.752° SSE2025-07-09 08:36:35.424Z36.157° NE37.773°2025-07-09 08:38:35.424Z359.231° N
4 mins2025-07-09 21:27:35.424Z27.439° NE2025-07-09 21:28:35.424Z64.96° ENE41.647°2025-07-09 21:31:35.424Z183.464° SSW
|